Simultaneous Nadir Overpasses (SNOs) Predictions

Prediction of SNOs between GOES-16 and METOP-A Satellite Orbit:

Table of predicted SNOs for the next 14.0 days since TLE Epoch: 5/29/2021
Index Date Time (GOES-16) GOES-16 Lat,Lon METOP-A Lat,Lon Distance(km) Time Diff (sec)
1 05/29/2021 13:25:57 -0.03, -75.21 0.76, -78.76 404.36 80
2 05/30/2021 13:02:38 -0.04, -75.22 -0.35, -73.78 163.06 80
3 06/01/2021 01:24:18 0.05, -75.21 -0.66, -78.42 366.04 80
4 06/02/2021 01:00:58 0.05, -75.22 0.46, -73.45 202.11 80
5 06/03/2021 13:22:30 -0.05, -75.26 0.57, -78.05 317.70 80
6 06/04/2021 12:59:10 -0.05, -75.28 -0.55, -73.08 250.99 80
7 06/06/2021 01:20:51 0.05, -75.29 -0.46, -77.72 276.41 80
8 06/07/2021 00:57:30 0.06, -75.31 0.60, -72.73 292.62 80
9 06/08/2021 13:19:02 -0.06, -75.36 0.37, -77.34 226.15 80
10 06/09/2021 12:55:43 -0.06, -75.38 -0.75, -72.37 342.99 80
11 06/11/2021 01:17:22 0.06, -75.39 -0.31, -77.00 183.85 80
12 06/12/2021 00:54:03 0.07, -75.41 0.81, -72.03 385.41 80
